FLI453 EKCH-EKVG

Flight info

Callsign FLI453
Flight time 1h 53m
Altitude 36000
Route GOLGA DCT AMSEV DCT ZOL DCT GUNPA/M077F360 DCT ROBUR
Aircraft A320/M-SDE3FGHIRWY/LB1

Departure

Time 2026-05-06 00:53
Airport Copenhagen Kastrup Airport (EKCH)

Arrival

Time 2026-05-06 02:46
Airport Vágar Airport (EKVG)
Time Latitude Longitude Altitude Speed Heading
2026-05-06 00:41 55.62644 12.64564 17 ft 0 kts 281°
2026-05-06 00:45 55.62641 12.64588 17 ft 4 kts 277°
2026-05-06 00:45 55.62641 12.64635 17 ft 4 kts 255°
2026-05-06 00:46 55.62652 12.64670 19 ft 4 kts 200°
2026-05-06 00:46 55.62658 12.64673 20 ft 0 kts 192°
2026-05-06 00:48 55.62657 12.64673 20 ft 1 kts 192°
2026-05-06 00:48 55.62620 12.64660 18 ft 11 kts 191°
2026-05-06 00:48 55.62553 12.64656 17 ft 18 kts 175°
2026-05-06 00:49 55.62400 12.64683 17 ft 26 kts 176°
2026-05-06 00:49 55.62288 12.64788 17 ft 19 kts 122°
2026-05-06 00:49 55.62202 12.65039 18 ft 25 kts 121°
2026-05-06 00:49 55.62115 12.65075 18 ft 15 kts 212°
2026-05-06 00:50 55.61994 12.64944 19 ft 26 kts 210°
2026-05-06 00:50 55.61815 12.64743 18 ft 35 kts 212°
2026-05-06 00:50 55.61600 12.64486 17 ft 38 kts 214°
2026-05-06 00:50 55.61377 12.64225 17 ft 38 kts 213°
2026-05-06 00:51 55.61156 12.63967 17 ft 39 kts 213°
2026-05-06 00:51 55.60929 12.63708 17 ft 39 kts 213°
2026-05-06 00:51 55.60706 12.63450 18 ft 35 kts 214°
2026-05-06 00:51 55.60531 12.63210 17 ft 29 kts 220°
2026-05-06 00:52 55.60420 12.63108 17 ft 10 kts 158°
2026-05-06 00:52 55.60351 12.63254 18 ft 21 kts 128°
2026-05-06 00:52 55.60366 12.63396 19 ft 19 kts 44°
2026-05-06 00:52 55.60649 12.63828 19 ft 88 kts 40°
2026-05-06 00:53 55.61256 12.64762 19 ft 141 kts 41°
2026-05-06 00:53 55.62046 12.65995 407 ft 152 kts 38°
2026-05-06 00:53 55.62839 12.67200 1164 ft 150 kts 41°
2026-05-06 00:53 55.63625 12.68423 1885 ft 152 kts 41°
2026-05-06 00:54 55.64464 12.69732 2218 ft 171 kts 42°
2026-05-06 00:54 55.65503 12.70994 2453 ft 194 kts 17°
2026-05-06 00:54 55.66921 12.70851 2689 ft 221 kts 347°
2026-05-06 00:54 55.68488 12.70113 3053 ft 244 kts 348°
2026-05-06 00:55 55.70199 12.69624 3722 ft 253 kts 356°
2026-05-06 00:55 55.71971 12.69416 4566 ft 257 kts 358°
2026-05-06 00:55 55.73780 12.69297 5397 ft 261 kts 359°
2026-05-06 00:55 55.75588 12.69191 6218 ft 265 kts 358°
2026-05-06 00:56 55.77445 12.69065 6988 ft 269 kts 356°
2026-05-06 00:56 55.79334 12.68879 7707 ft 275 kts 351°
2026-05-06 00:56 55.81168 12.67889 8422 ft 278 kts 330°
2026-05-06 00:56 55.82706 12.65815 9183 ft 278 kts 309°
2026-05-06 00:57 55.83752 12.62947 9964 ft 277 kts 290°
2026-05-06 00:57 55.84476 12.59696 10411 ft 292 kts 289°
2026-05-06 00:57 55.85252 12.56187 10590 ft 316 kts 289°
2026-05-06 00:57 55.86077 12.52460 10745 ft 338 kts 289°
2026-05-06 00:58 55.86969 12.48432 10874 ft 359 kts 290°
2026-05-06 00:58 55.87914 12.44168 11041 ft 376 kts 290°
2026-05-06 00:58 55.88884 12.39791 11518 ft 383 kts 290°
2026-05-06 00:58 55.89884 12.35371 12099 ft 386 kts 292°
2026-05-06 00:59 55.91193 12.31216 12677 ft 391 kts 302°
2026-05-06 00:59 55.92776 12.27229 13270 ft 393 kts 303°
2026-05-06 00:59 55.94367 12.23226 13837 ft 395 kts 302°
2026-05-06 00:59 55.95943 12.19249 14327 ft 398 kts 302°
2026-05-06 01:00 55.97541 12.15192 14814 ft 400 kts 302°
2026-05-06 01:00 55.99139 12.11119 15350 ft 401 kts 302°
2026-05-06 01:00 56.00742 12.07026 15838 ft 403 kts 301°
2026-05-06 01:00 56.02416 12.02979 16296 ft 407 kts 307°
2026-05-06 01:01 56.04453 11.99391 16760 ft 415 kts 316°
2026-05-06 01:01 56.06822 11.96494 17215 ft 422 kts 326°
2026-05-06 01:01 56.09401 11.93912 17656 ft 425 kts 326°
2026-05-06 01:01 56.11994 11.91301 18080 ft 428 kts 326°
2026-05-06 01:02 56.14597 11.88662 18452 ft 430 kts 325°
2026-05-06 01:02 56.17205 11.86007 18810 ft 432 kts 325°
2026-05-06 01:02 56.19823 11.83334 19160 ft 434 kts 325°
2026-05-06 01:02 56.22430 11.80664 19503 ft 436 kts 325°
2026-05-06 01:03 56.25075 11.77950 19844 ft 439 kts 324°
2026-05-06 01:03 56.27739 11.75213 20176 ft 441 kts 324°
2026-05-06 01:03 56.30410 11.72469 20540 ft 442 kts 324°
2026-05-06 01:03 56.32947 11.69397 20862 ft 437 kts 316°
2026-05-06 01:04 56.35177 11.65715 21170 ft 433 kts 307°
2026-05-06 01:04 56.37153 11.61699 21474 ft 433 kts 306°
2026-05-06 01:04 56.39179 11.57562 21773 ft 435 kts 306°
2026-05-06 01:04 56.41164 11.53514 22078 ft 437 kts 306°
2026-05-06 01:05 56.43186 11.49394 22371 ft 439 kts 306°
2026-05-06 01:05 56.45219 11.45244 22663 ft 440 kts 306°
2026-05-06 01:05 56.47252 11.41078 22949 ft 442 kts 306°
2026-05-06 01:05 56.49294 11.36883 23223 ft 443 kts 306°
2026-05-06 01:06 56.51312 11.32723 23518 ft 444 kts 306°
2026-05-06 01:06 56.53351 11.28508 23855 ft 443 kts 305°
2026-05-06 01:06 56.55387 11.24299 24213 ft 442 kts 305°
2026-05-06 01:06 56.57412 11.20105 24568 ft 440 kts 305°
2026-05-06 01:07 56.59411 11.15962 24918 ft 439 kts 304°
2026-05-06 01:07 56.61420 11.11789 25306 ft 438 kts 304°
2026-05-06 01:07 56.63423 11.07626 25722 ft 435 kts 304°
2026-05-06 01:07 56.65390 11.03532 26125 ft 433 kts 304°
2026-05-06 01:08 56.67372 10.99395 26522 ft 431 kts 304°
2026-05-06 01:08 56.69338 10.95283 26892 ft 430 kts 304°
2026-05-06 01:08 56.71306 10.91159 27276 ft 428 kts 303°
2026-05-06 01:08 56.73231 10.87112 27657 ft 427 kts 303°
2026-05-06 01:09 56.75171 10.83027 28051 ft 425 kts 303°
2026-05-06 01:09 56.77105 10.78957 28452 ft 424 kts 303°
2026-05-06 01:09 56.79037 10.74888 28847 ft 422 kts 303°
2026-05-06 01:09 56.80954 10.70841 29237 ft 421 kts 303°
2026-05-06 01:10 56.82868 10.66791 29630 ft 420 kts 302°
2026-05-06 01:10 56.84749 10.62802 30015 ft 418 kts 302°
2026-05-06 01:10 56.86649 10.58763 30368 ft 417 kts 303°
2026-05-06 01:10 56.88546 10.54718 30598 ft 419 kts 303°
2026-05-06 01:11 56.90448 10.50649 30840 ft 420 kts 303°
2026-05-06 01:11 56.92347 10.46580 31106 ft 420 kts 303°
2026-05-06 01:11 56.94223 10.42567 31387 ft 420 kts 303°
2026-05-06 01:11 56.96128 10.38489 31681 ft 421 kts 303°
2026-05-06 01:12 56.98034 10.34403 31951 ft 421 kts 303°
2026-05-06 01:12 56.99931 10.30322 32238 ft 421 kts 303°
2026-05-06 01:12 57.01832 10.26224 32523 ft 420 kts 303°
2026-05-06 01:12 57.03725 10.22130 32813 ft 420 kts 303°
2026-05-06 01:13 57.05613 10.18045 33098 ft 419 kts 303°
2026-05-06 01:13 57.07503 10.13955 33390 ft 419 kts 303°
2026-05-06 01:13 57.09369 10.09920 33680 ft 419 kts 303°
2026-05-06 01:13 57.11265 10.05817 33963 ft 419 kts 303°
2026-05-06 01:14 57.15042 9.97610 34431 ft 419 kts 303°
2026-05-06 01:14 57.16897 9.93558 34659 ft 419 kts 303°
2026-05-06 01:14 57.18777 9.89434 34881 ft 419 kts 303°
2026-05-06 01:15 57.20654 9.85310 35091 ft 419 kts 303°
2026-05-06 01:15 57.22525 9.81195 35295 ft 419 kts 303°
2026-05-06 01:15 57.24398 9.77073 35497 ft 419 kts 303°
2026-05-06 01:15 57.26270 9.72948 35693 ft 419 kts 304°
2026-05-06 01:16 57.28141 9.68818 35930 ft 419 kts 303°
2026-05-06 01:16 57.29996 9.64716 35971 ft 423 kts 303°
2026-05-06 01:16 57.33780 9.56325 35975 ft 425 kts 303°
2026-05-06 01:17 57.37568 9.47908 35963 ft 425 kts 303°
2026-05-06 01:17 57.41364 9.39448 35966 ft 425 kts 303°
2026-05-06 01:18 57.45119 9.31042 35967 ft 425 kts 303°
2026-05-06 01:18 57.48904 9.22527 35968 ft 426 kts 303°
2026-05-06 01:19 57.52649 9.14077 35975 ft 426 kts 303°
2026-05-06 01:19 57.56415 9.05554 35976 ft 426 kts 303°
2026-05-06 01:20 57.60167 8.97020 35985 ft 426 kts 303°
2026-05-06 01:20 57.63922 8.88444 35995 ft 426 kts 303°
2026-05-06 01:21 57.67639 8.79912 35990 ft 425 kts 302°
2026-05-06 01:21 57.71261 8.71184 35993 ft 424 kts 301°
2026-05-06 01:22 57.74791 8.62319 35988 ft 424 kts 300°
2026-05-06 01:22 57.78294 8.53492 35989 ft 424 kts 300°
2026-05-06 01:23 57.81837 8.44628 35996 ft 425 kts 301°
2026-05-06 01:23 57.85383 8.35731 35992 ft 425 kts 301°
2026-05-06 01:24 57.88906 8.26852 35997 ft 426 kts 301°
2026-05-06 01:24 57.92444 8.17908 36000 ft 426 kts 301°
2026-05-06 01:25 57.95981 8.08949 36037 ft 426 kts 300°
2026-05-06 01:25 57.99510 7.99965 36030 ft 425 kts 300°
2026-05-06 01:26 58.03002 7.91035 36035 ft 425 kts 300°
2026-05-06 01:26 58.06509 7.82026 36027 ft 425 kts 300°
2026-05-06 01:27 58.10006 7.73001 36022 ft 425 kts 300°
2026-05-06 01:27 58.13475 7.64042 36021 ft 425 kts 300°
2026-05-06 01:28 58.16962 7.54995 36022 ft 425 kts 300°
2026-05-06 01:28 58.20434 7.45939 36024 ft 424 kts 300°
2026-05-06 01:29 58.23888 7.36893 36041 ft 425 kts 300°
2026-05-06 01:29 58.27358 7.27781 36084 ft 425 kts 300°
2026-05-06 01:30 58.30795 7.18749 36028 ft 422 kts 300°
2026-05-06 01:30 58.34231 7.09647 36028 ft 422 kts 300°
2026-05-06 01:31 58.37636 7.00595 36027 ft 422 kts 300°
2026-05-06 01:31 58.41060 6.91461 36036 ft 422 kts 300°
2026-05-06 01:32 58.44477 6.82328 36051 ft 422 kts 300°
2026-05-06 01:32 58.47880 6.73179 36045 ft 422 kts 300°
2026-05-06 01:33 58.51253 6.64076 36046 ft 422 kts 300°
2026-05-06 01:33 58.54656 6.54884 36047 ft 422 kts 300°
2026-05-06 01:34 58.58044 6.45682 36044 ft 422 kts 299°
2026-05-06 01:34 58.61403 6.36507 36043 ft 422 kts 299°
2026-05-06 01:35 58.64770 6.27269 36046 ft 422 kts 299°
2026-05-06 01:35 58.68113 6.18092 36051 ft 422 kts 299°
2026-05-06 01:36 58.71471 6.08828 36055 ft 421 kts 299°
2026-05-06 01:36 58.74254 6.01116 36058 ft 421 kts 299°
2026-05-06 01:37 58.78134 5.90317 36062 ft 421 kts 299°
2026-05-06 01:37 58.80908 5.82580 36067 ft 421 kts 299°
2026-05-06 01:38 58.84238 5.73255 36069 ft 421 kts 299°
2026-05-06 01:38 58.87543 5.63955 36068 ft 421 kts 298°
2026-05-06 01:39 58.91109 5.54871 36065 ft 425 kts 303°
2026-05-06 01:39 58.94924 5.46212 36044 ft 424 kts 304°
2026-05-06 01:40 58.98696 5.37560 36041 ft 423 kts 303°
2026-05-06 01:40 59.02418 5.28712 36043 ft 422 kts 303°
2026-05-06 01:41 59.06105 5.19795 36038 ft 423 kts 302°
2026-05-06 01:41 59.09773 5.10925 36065 ft 423 kts 303°
2026-05-06 01:42 59.13460 5.02005 36062 ft 423 kts 303°
2026-05-06 01:42 59.17163 4.93038 36059 ft 424 kts 303°
2026-05-06 01:43 59.20830 4.84115 36057 ft 424 kts 302°
2026-05-06 01:43 59.24519 4.75099 36066 ft 424 kts 303°
2026-05-06 01:44 59.28188 4.66095 36053 ft 423 kts 303°
2026-05-06 01:44 59.31827 4.57110 36052 ft 423 kts 303°
2026-05-06 01:45 59.35483 4.48078 36059 ft 423 kts 303°
2026-05-06 01:45 59.39147 4.39004 36057 ft 424 kts 303°
2026-05-06 01:46 59.42795 4.29900 36053 ft 424 kts 303°
2026-05-06 01:46 59.46436 4.20753 36053 ft 424 kts 303°
2026-05-06 01:47 59.50059 4.11658 36060 ft 424 kts 303°
2026-05-06 01:47 59.53708 4.02462 36059 ft 424 kts 303°
2026-05-06 01:48 59.57320 3.93322 36056 ft 424 kts 303°
2026-05-06 01:48 59.60944 3.84121 36063 ft 424 kts 303°
2026-05-06 01:49 59.64550 3.74934 36059 ft 425 kts 303°
2026-05-06 01:49 59.68161 3.65668 36056 ft 425 kts 303°
2026-05-06 01:50 59.71777 3.56368 36057 ft 425 kts 303°
2026-05-06 01:50 59.75391 3.47049 36058 ft 425 kts 302°
2026-05-06 01:51 59.78827 3.38149 36058 ft 425 kts 302°
2026-05-06 01:51 59.82416 3.28794 36059 ft 425 kts 302°
2026-05-06 01:52 59.85997 3.19411 36071 ft 426 kts 302°
2026-05-06 01:52 59.89556 3.10087 36045 ft 425 kts 302°
2026-05-06 01:53 59.93140 3.00660 36044 ft 426 kts 302°
2026-05-06 01:53 59.96712 2.91214 36046 ft 426 kts 302°
2026-05-06 01:54 60.00264 2.81778 36050 ft 427 kts 302°
2026-05-06 01:54 60.03827 2.72270 36052 ft 427 kts 302°
2026-05-06 01:55 60.07371 2.62796 36055 ft 427 kts 302°
2026-05-06 01:55 60.10927 2.53242 36054 ft 427 kts 302°
2026-05-06 01:56 60.14459 2.43711 36058 ft 427 kts 302°
2026-05-06 01:56 60.18005 2.34109 36081 ft 428 kts 302°
2026-05-06 01:57 60.21545 2.24458 36069 ft 428 kts 302°
2026-05-06 01:57 60.25077 2.14767 36064 ft 429 kts 302°
2026-05-06 01:58 60.28606 2.05084 36061 ft 429 kts 302°
2026-05-06 01:58 60.32141 1.95370 36060 ft 429 kts 302°
2026-05-06 01:59 60.35655 1.85670 36058 ft 430 kts 302°
2026-05-06 01:59 60.39182 1.75882 36055 ft 430 kts 301°
2026-05-06 02:00 60.42694 1.66058 36055 ft 430 kts 301°
2026-05-06 02:00 60.46181 1.56261 36075 ft 432 kts 302°
2026-05-06 02:01 60.49692 1.46370 36063 ft 432 kts 302°
2026-05-06 02:01 60.53188 1.36516 36045 ft 432 kts 302°
2026-05-06 02:02 60.56697 1.26569 36048 ft 433 kts 302°
2026-05-06 02:02 60.60201 1.16564 36046 ft 434 kts 302°
2026-05-06 02:03 60.63715 1.06526 36044 ft 434 kts 302°
2026-05-06 02:03 60.67205 0.96518 36055 ft 434 kts 302°
2026-05-06 02:04 60.70696 0.86435 36053 ft 434 kts 301°
2026-05-06 02:04 60.74152 0.76385 36049 ft 434 kts 301°
2026-05-06 02:05 60.77626 0.66245 36057 ft 435 kts 302°
2026-05-06 02:05 60.81091 0.56123 36053 ft 435 kts 302°
2026-05-06 02:06 60.84562 0.45944 36056 ft 435 kts 302°
2026-05-06 02:06 60.88009 0.35799 36049 ft 435 kts 302°
2026-05-06 02:07 60.91462 0.25553 36047 ft 435 kts 301°
2026-05-06 02:07 60.94903 0.15288 36047 ft 435 kts 301°
2026-05-06 02:08 60.98320 0.05052 36048 ft 435 kts 301°
2026-05-06 02:08 61.00990 -0.06014 36048 ft 430 kts 287°
2026-05-06 02:09 61.02875 -0.17652 36047 ft 430 kts 287°
2026-05-06 02:09 61.04766 -0.29366 36062 ft 431 kts 287°
2026-05-06 02:10 61.06653 -0.41128 36043 ft 431 kts 287°
2026-05-06 02:10 61.08530 -0.52936 36040 ft 432 kts 287°
2026-05-06 02:11 61.10387 -0.64690 36036 ft 433 kts 287°
2026-05-06 02:11 61.12247 -0.76542 36038 ft 433 kts 286°
2026-05-06 02:12 61.14098 -0.88434 36042 ft 433 kts 286°
2026-05-06 02:12 61.15923 -1.00246 36043 ft 433 kts 286°
2026-05-06 02:13 61.17751 -1.12138 36046 ft 433 kts 286°
2026-05-06 02:13 61.19575 -1.24050 36047 ft 433 kts 286°
2026-05-06 02:14 61.21387 -1.35986 36039 ft 433 kts 286°
2026-05-06 02:14 61.23185 -1.47935 36043 ft 433 kts 286°
2026-05-06 02:15 61.24965 -1.59836 36042 ft 433 kts 286°
2026-05-06 02:15 61.26741 -1.71847 36045 ft 434 kts 286°
2026-05-06 02:16 61.28512 -1.83830 36048 ft 434 kts 286°
2026-05-06 02:16 61.30277 -1.95845 36048 ft 434 kts 285°
2026-05-06 02:17 61.32016 -2.07805 36061 ft 434 kts 285°
2026-05-06 02:17 61.33748 -2.19860 36057 ft 435 kts 286°
2026-05-06 02:18 61.35483 -2.31952 36047 ft 436 kts 285°
2026-05-06 02:18 61.37205 -2.44081 36045 ft 436 kts 285°
2026-05-06 02:19 61.38920 -2.56252 36047 ft 437 kts 285°
2026-05-06 02:19 61.40619 -2.68371 36048 ft 437 kts 285°
2026-05-06 02:20 61.43165 -2.86675 36043 ft 437 kts 285°
2026-05-06 02:20 61.43995 -2.92712 35839 ft 436 kts 285°
2026-05-06 02:21 61.44830 -2.98807 35597 ft 435 kts 285°
2026-05-06 02:21 61.45659 -3.04886 35357 ft 434 kts 285°
2026-05-06 02:21 61.46487 -3.10956 35136 ft 434 kts 285°
2026-05-06 02:21 61.47313 -3.17022 34907 ft 433 kts 285°
2026-05-06 02:22 61.48135 -3.23103 34681 ft 433 kts 285°
2026-05-06 02:22 61.48950 -3.29175 34450 ft 432 kts 285°
2026-05-06 02:22 61.49762 -3.35238 34227 ft 432 kts 285°
2026-05-06 02:22 61.50565 -3.41232 34002 ft 431 kts 285°
2026-05-06 02:23 61.51375 -3.47281 33726 ft 431 kts 285°
2026-05-06 02:23 61.52179 -3.53337 33456 ft 430 kts 285°
2026-05-06 02:23 61.52976 -3.59365 33181 ft 429 kts 285°
2026-05-06 02:23 61.53775 -3.65405 32922 ft 428 kts 285°
2026-05-06 02:24 61.54565 -3.71417 32670 ft 427 kts 285°
2026-05-06 02:24 61.55347 -3.77418 32412 ft 427 kts 285°
2026-05-06 02:24 61.56128 -3.83432 32155 ft 426 kts 284°
2026-05-06 02:24 61.56904 -3.89426 31902 ft 425 kts 284°
2026-05-06 02:25 61.57667 -3.95342 31651 ft 424 kts 284°
2026-05-06 02:25 61.58437 -4.01329 31404 ft 424 kts 284°
2026-05-06 02:25 61.59200 -4.07301 31158 ft 423 kts 284°
2026-05-06 02:25 61.59959 -4.13283 30908 ft 422 kts 284°
2026-05-06 02:26 61.60717 -4.19256 30674 ft 421 kts 284°
2026-05-06 02:26 61.61462 -4.25116 30433 ft 421 kts 284°
2026-05-06 02:26 61.62216 -4.31038 30187 ft 419 kts 284°
2026-05-06 02:26 61.62967 -4.36962 29916 ft 418 kts 284°
2026-05-06 02:27 61.63709 -4.42874 29615 ft 418 kts 284°
2026-05-06 02:27 61.64444 -4.48790 28968 ft 417 kts 284°
2026-05-06 02:27 61.65177 -4.54728 27839 ft 419 kts 284°
2026-05-06 02:27 61.65904 -4.60646 26850 ft 417 kts 284°
2026-05-06 02:28 61.66622 -4.66503 25747 ft 418 kts 284°
2026-05-06 02:28 61.67351 -4.72449 24631 ft 419 kts 284°
2026-05-06 02:28 61.68081 -4.78401 23668 ft 417 kts 284°
2026-05-06 02:28 61.68794 -4.84254 22744 ft 411 kts 284°
2026-05-06 02:29 61.69498 -4.90057 21962 ft 404 kts 284°
2026-05-06 02:29 61.70185 -4.95759 21239 ft 397 kts 284°
2026-05-06 02:29 61.70848 -5.01296 20528 ft 391 kts 284°
2026-05-06 02:29 61.71507 -5.06815 19843 ft 385 kts 284°
2026-05-06 02:30 61.72157 -5.12268 19156 ft 381 kts 284°
2026-05-06 02:30 61.72798 -5.17675 18482 ft 378 kts 284°
2026-05-06 02:30 61.73435 -5.23037 17766 ft 374 kts 284°
2026-05-06 02:30 61.74062 -5.28330 17141 ft 369 kts 284°
2026-05-06 02:31 61.74680 -5.33565 16519 ft 366 kts 284°
2026-05-06 02:31 61.75291 -5.38766 15924 ft 364 kts 284°
2026-05-06 02:31 61.75890 -5.43882 15343 ft 362 kts 284°
2026-05-06 02:31 61.76488 -5.49025 14771 ft 360 kts 284°
2026-05-06 02:32 61.77085 -5.54167 14210 ft 360 kts 284°
2026-05-06 02:32 61.77679 -5.59308 13621 ft 358 kts 284°
2026-05-06 02:32 61.78263 -5.64405 13064 ft 356 kts 284°
2026-05-06 02:32 61.78848 -5.69516 12524 ft 354 kts 284°
2026-05-06 02:33 61.79420 -5.74519 11984 ft 352 kts 284°
2026-05-06 02:33 61.79800 -5.77864 11624 ft 351 kts 284°
2026-05-06 02:33 61.81070 -5.89105 11189 ft 318 kts 285°
2026-05-06 02:34 61.81402 -5.92056 11096 ft 302 kts 284°
2026-05-06 02:34 61.82010 -5.97501 10819 ft 275 kts 285°
2026-05-06 02:34 61.82445 -6.01389 10471 ft 269 kts 285°
2026-05-06 02:34 61.82875 -6.05213 10206 ft 266 kts 285°
2026-05-06 02:35 61.83303 -6.09021 9979 ft 266 kts 285°
2026-05-06 02:35 61.83728 -6.12847 9838 ft 267 kts 285°
2026-05-06 02:35 61.84008 -6.15389 9750 ft 267 kts 285°
2026-05-06 02:35 61.84430 -6.19211 9608 ft 265 kts 285°
2026-05-06 02:36 61.84981 -6.24236 9413 ft 264 kts 285°
2026-05-06 02:36 61.85262 -6.26798 9326 ft 264 kts 285°
2026-05-06 02:36 61.85677 -6.30557 9196 ft 265 kts 285°
2026-05-06 02:36 61.86098 -6.34366 9055 ft 265 kts 285°
2026-05-06 02:37 61.86519 -6.38166 8790 ft 266 kts 285°
2026-05-06 02:37 61.86938 -6.41996 8370 ft 264 kts 284°
2026-05-06 02:37 61.87344 -6.45759 7770 ft 260 kts 284°
2026-05-06 02:37 61.87738 -6.49471 7205 ft 256 kts 284°
2026-05-06 02:38 61.88127 -6.53131 6696 ft 252 kts 285°
2026-05-06 02:38 61.88538 -6.56755 6185 ft 252 kts 289°
2026-05-06 02:38 61.89234 -6.60072 5686 ft 247 kts 299°
2026-05-06 02:38 61.90084 -6.63270 5198 ft 250 kts 300°
2026-05-06 02:39 61.90930 -6.66507 4772 ft 249 kts 299°
2026-05-06 02:39 61.91737 -6.69667 4611 ft 236 kts 299°
2026-05-06 02:39 61.92497 -6.72649 4519 ft 223 kts 299°
2026-05-06 02:39 61.93215 -6.75468 4427 ft 211 kts 299°
2026-05-06 02:40 61.93889 -6.78117 4337 ft 202 kts 299°
2026-05-06 02:40 61.94541 -6.80682 4244 ft 193 kts 299°
2026-05-06 02:40 61.95158 -6.83111 4189 ft 179 kts 299°
2026-05-06 02:40 61.95737 -6.85394 4108 ft 173 kts 299°
2026-05-06 02:41 61.96307 -6.87643 4021 ft 172 kts 299°
2026-05-06 02:41 61.96866 -6.89852 4013 ft 171 kts 299°
2026-05-06 02:41 61.97429 -6.92080 4007 ft 171 kts 299°
2026-05-06 02:41 61.97992 -6.94308 4009 ft 170 kts 299°
2026-05-06 02:42 61.98551 -6.96525 3924 ft 170 kts 299°
2026-05-06 02:42 61.99108 -6.98734 3721 ft 169 kts 298°
2026-05-06 02:42 61.99657 -7.00915 3478 ft 166 kts 300°
2026-05-06 02:42 62.00189 -7.03031 3215 ft 155 kts 299°
2026-05-06 02:43 62.00665 -7.04925 2963 ft 140 kts 299°
2026-05-06 02:43 62.01118 -7.06727 2736 ft 135 kts 299°
2026-05-06 02:43 62.01551 -7.08454 2530 ft 133 kts 299°
2026-05-06 02:43 62.01986 -7.10185 2303 ft 132 kts 299°
2026-05-06 02:44 62.02418 -7.11911 2094 ft 131 kts 299°
2026-05-06 02:44 62.02849 -7.13633 1877 ft 132 kts 298°
2026-05-06 02:44 62.03279 -7.15351 1650 ft 130 kts 297°
2026-05-06 02:44 62.03711 -7.17080 1438 ft 132 kts 298°
2026-05-06 02:45 62.04138 -7.18788 1210 ft 133 kts 300°
2026-05-06 02:45 62.04565 -7.20502 977 ft 130 kts 301°
2026-05-06 02:45 62.04990 -7.22204 755 ft 130 kts 298°
2026-05-06 02:45 62.05421 -7.23932 543 ft 131 kts 297°
2026-05-06 02:46 62.05844 -7.25643 353 ft 129 kts 298°
2026-05-06 02:46 62.06228 -7.27195 279 ft 93 kts 297°
2026-05-06 02:46 62.06390 -7.27847 285 ft 7 kts 297°
2026-05-06 02:46 62.06396 -7.27871 287 ft 3 kts 297°
2026-05-06 02:47 62.06440 -7.28054 282 ft 19 kts 300°
2026-05-06 02:47 62.06540 -7.28124 279 ft 18 kts 16°
2026-05-06 02:47 62.06640 -7.28058 281 ft 10 kts 54°
2026-05-06 02:47 62.06638 -7.27934 279 ft 8 kts 107°
2026-05-06 02:48 62.06666 -7.27869 279 ft 6 kts 27°
2026-05-06 02:48 62.06674 -7.27859 279 ft 0 kts 28°